Weather in Svisloch

Belarus     53°26′37″N   28°57′16″E
temp.,
°C
wind,
m/s
gust,
m/s
humid.,
%
clouds,
%
prec.,
mm/h
press.,
hPa
HPBL,
m
8 march, mon
mon800:00−3w5128983 0.1 1005526
03:00−4w5118670 0.1 1006582
06:00−5w5118919 0.0 1006563
09:00−5wnw598545 0.0 1007638
12:00−2nw5672100 0.3 10091060
15:00−2nnw685994 0.5 10101498
18:00−4nw587299 0.1 10121115
21:00−5nnw398497 0.1 1015569
9 march, tue
tue900:00−6n3783100 0.1 1017561
03:00−8nnw2686100 0.1 1018331
06:00−9nnw268940 0.0 1019230
09:00−8nnw368520 0.0 1021363
12:00−5nnw456818 0.0 1022821
15:00−4nnw355713 0.0 10231129
18:00−4nw24660 0.0 1022264
21:00−6w23784 0.0 102447
10 march, wed
wed1000:00−7w238363 0.0 102556
03:00−7wsw358661 0.0 1024128
06:00−8wsw359075 0.0 1024132
09:00−7wsw358477 0.0 1025210
12:00−3w356797 0.0 1025545
15:00−2wnw235799 0.0 1025876
18:00−2n1268100 0.0 102553
21:00−4ene2479100 0.0 1027103
11 march, thu
thu1100:00−7ese369199 0.0 1029273
03:00−8ese369298 0.0 1029284
06:00−9se3693100 0.0 1029268
09:00−10se468899 0.1 1029255
12:00−6se477750 0.0 1028354
15:00−3sse587225 0.0 1026645
18:00−3se6107838 0.0 1024775
21:00−5sse7138169 0.0 1022642
12 march, fri
fri1200:00−4sse81474100 0.0 1020787
03:00−3sse81571100 0.0 1016873
06:00−3sse91681100 0.1 1012886
09:00−3s101793100 1.1 1009828
12:000s71396100 1.4 1007564
15:00+2ssw51198100 3.4 1006467
18:00+3wsw4119699 0.6 1007512
21:00+2wsw4119299 0.6 1009431